Wooster, OH

4:43 PM EDT on August 19, 2017 (GMT -0400)
Wayne County

Weather History for KBJJ - May, 2014

Change the Weather History Date:

Monday, May 19, 2014

  Actual Average Record
Temperature  
Mean Temperature 52 °F -  
Max Temperature 68 °F 67 °F 88 °F (1998)
Min Temperature 39 °F 46 °F 32 °F (2002)
Degree Days  
Heating Degree Days 12    
Growing Degree Days 2 (Base 50)    
Moisture  
Dew Point 40 °F    
Average Humidity 61    
Maximum Humidity 89    
Minimum Humidity 32    
Precipitation  
Precipitation 0.00 in - - ()
Sea Level Pressure  
Sea Level Pressure 30.27 in    
Wind  
Wind Speed 1 mph (SSE)    
Max Wind Speed 8 mph    
Max Gust Speed -    
Visibility 10 miles    
Events      
Averages and records for this station are not official NWS values.
T = Trace of Precipitation, MM = Missing Value Source: NWS Daily Summary

Daily Weather History Graph

Daily Weather History Graph

Search for Another Location

Airport or City:

Trip Planner

Search our weather history database for the weather conditions in past years. The results will help you decide how hot, cold, wet, or windy it might be!

Date:

Astronomy

May. 19, 2014 Rise Set
Actual Time 6:06 AM EDT 8:42 PM EDT
Civil Twilight 5:34 AM EDT 9:13 PM EDT
Nautical Twilight 4:55 AM EDT 9:53 PM EDT
Astronomical Twilight 4:11 AM EDT 10:37 PM EDT
Moon 12:28 AM EDT 11:03 AM EDT
Length of Visible Light 15h 38m
Length of Day
14h 35m
Waning Gibbous, 71% of the Moon is Illuminated
May 19
Waning Gibbous
May 21
Last Quarter
May 28
New
Jun 5
First Quarter
Jun 13
Full

Hourly Weather History & Observations

Time (EDT) Temp. Dew Point Humidity Pressure Visibility Wind Dir Wind Speed Gust Speed Precip Events Conditions
12:56 AM 45.0 °F 41.0 °F 86% 30.29 in 10.0 mi Calm Calm - N/A   Clear
2:56 AM 42.1 °F 39.0 °F 89% 30.29 in 10.0 mi Calm Calm - N/A   Clear
3:56 AM 41.0 °F 37.9 °F 89% 30.30 in 10.0 mi Calm Calm - N/A   Clear
4:56 AM 41.0 °F 37.0 °F 86% 30.30 in 10.0 mi Calm Calm - N/A   Clear
5:56 AM 39.9 °F 37.0 °F 89% 30.32 in 10.0 mi Calm Calm - N/A   Clear
6:56 AM 42.1 °F 39.0 °F 89% 30.33 in 10.0 mi Calm Calm - N/A   Clear
7:56 AM 48.0 °F 45.0 °F 89% 30.34 in 7.0 mi Calm Calm - N/A   Clear
10:56 AM 62.1 °F 36.0 °F 38% 30.33 in 10.0 mi Variable 4.6 mph - N/A   Clear
11:56 AM 63.0 °F 34.0 °F 34% 30.32 in 10.0 mi Calm Calm - N/A   Clear
12:56 PM 64.0 °F 35.1 °F 34% 30.31 in 10.0 mi Calm Calm - N/A   Clear
1:56 PM 64.9 °F 35.1 °F 33% 30.30 in 10.0 mi SSW 6.9 mph - N/A   Clear
2:56 PM 66.0 °F 37.9 °F 36% 30.28 in 10.0 mi SE 8.1 mph - N/A   Clear
3:56 PM 66.0 °F 35.1 °F 32% 30.26 in 10.0 mi Calm Calm - N/A   Clear
4:56 PM 66.9 °F 36.0 °F 32% 30.24 in 10.0 mi SSE 4.6 mph - N/A   Clear
5:56 PM 66.9 °F 36.0 °F 32% 30.24 in 10.0 mi Calm Calm - N/A   Clear
6:56 PM 66.0 °F 39.9 °F 38% 30.22 in 10.0 mi SSE 4.6 mph - N/A   Clear
7:56 PM 62.1 °F 46.0 °F 56% 30.21 in 10.0 mi Calm Calm - N/A   Clear
8:56 PM 57.9 °F 48.0 °F 70% 30.19 in 10.0 mi Calm Calm - N/A   Clear
9:56 PM 54.0 °F 46.0 °F 75% 30.19 in 10.0 mi Calm Calm - N/A   Clear
10:56 PM 54.0 °F 46.9 °F 77% 30.20 in 10.0 mi Calm Calm - N/A   Clear
11:56 PM 53.1 °F 46.0 °F 77% 30.20 in 10.0 mi Calm Calm - N/A   Clear